Regional Weather Roundup
Issued by NWS Cleveland, OH

Home | Current Version | Previous Version | Graphics & Text | Print | Product List | Glossary On
Versions: 1 2 3 4 5 6 7 8 9 10 11 12 13 14 15 16 17 18 19 20 21 22 23 24 25 26 27 28 29 30 31 32 33 34 35 36 37 38 39 40 41 42 43 44 45 46 47 48 49 50
000
ASUS41 KCLE 280600
RWRCLE
OHIO REGIONAL WEATHER ROUNDUP
NATIONAL WEATHER SERVICE WILMINGTON, OH
200 AM EDT FRI AUG 28 2015

NOTE: "FAIR" INDICATES FEW OR NO CLOUDS BELOW 12,000 FEET WITH NO
SIGNIFICANT WEATHER AND/OR OBSTRUCTIONS TO VISIBILITY.

OHZ001>008-015>018-024>027-034-035-043-044-280700-
   NORTHWEST OHIO

CITY           SKY/WX    TMP DP  RH WIND       PRES   REMARKS
DEFIANCE       FAIR      57  53  86 CALM      30.17F
FINDLAY        FAIR      58  54  86 E3        30.17S
TOLEDO EXPRESS FAIR      53  53 100 CALM      30.18S FOG
TOLEDO EXEC    FAIR      57  53  86 SE3       30.18S
LIMA           FAIR      57  55  93 E7        30.16F
$$

OHZ009>014-019>023-028>033-038-089-280700-
   NORTHEAST OHIO

CITY           SKY/WX    TMP DP  RH WIND       PRES   REMARKS
CLE-HOPKINS    FAIR      55  53  93 S6        30.20S
CLE-LAKEFRONT  FAIR      60  54  80 S9        30.17F
CUY CO. ARPT   NOT AVBL
LORAIN-ELYRIA  FAIR      51  50  96 CALM      30.19S
ASHTABULA      FAIR      50  49  96 CALM      30.20S FOG
AKRON-CANTON   FAIR      56  52  86 E6        30.19F
WOOSTER        NOT AVBL
MANSFIELD      FAIR      56  54  93 E5        30.18F
YOUNGSTOWN     FAIR      53  52  96 CALM      30.19F
$$

OHZ042-051>053-060>062-070>072-077>081-280700-
  SOUTHWEST OHIO

CITY           SKY/WX    TMP DP  RH WIND       PRES   REMARKS
CINC-COVINGTON FAIR      63  56  78 CALM      30.15S
CINC-LUNKEN    FAIR      57  57 100 CALM      30.15F FOG
HAMILTON       FAIR      54  53  97 CALM      30.16S
DAYTON         NOT AVBL
WRIGHT-PAT AFB NOT AVBL
DAYTON GENERAL FAIR      59  55  87 E3        30.15S
WILMINGTON     FAIR      53  51  93 CALM      30.16S
$$

OHZ036-037-039>041-045>050-054>059-063>069-073>076-082>088-280700-
  CENTRAL AND SOUTHEAST OHIO

CITY           SKY/WX    TMP DP  RH WIND       PRES   REMARKS
COLUMBUS       FAIR      59  55  87 E5        30.15F
OSU AIRPORT    FAIR      58  55  90 E6        30.16S
BOLTON FIELD   NOT AVBL
RICKENBACK AFB NOT AVBL
NEWARK         FAIR      53  52  96 CALM      30.16F FOG
MARION         FAIR      56  53  90 CALM      30.17F
LANCASTER      FAIR      51  49  92 CALM      30.16F
ZANESVILLE     FAIR      57  54  89 CALM      30.17S
NEW PHILLY     FAIR      53  53 100 CALM      30.19S FOG
$$


USA.gov is the U.S. government's official web portal to all federal, state and local government web resources and services.